Time,TemperatureF,DewpointF,PressureIn,WindDirection,WindDirectionDegrees,WindSpeedMPH,WindSpeedGustMPH,Humidity,HourlyPrecipIn,Conditions,Clouds,dailyrainin,SoftwareType,DateUTC
2013-11-14 00:02:00,68.0,-99.9,-100.00,East,97,3.0,4.0,-999,-99.99,,,-99.99,,2013-11-14 07:02:00,
2013-11-14 01:12:00,65.0,-99.9,-100.00,NE,37,10.0,11.0,-999,-99.99,,,-99.99,,2013-11-14 08:12:00,
2013-11-14 01:20:00,63.0,-99.9,-100.00,SE,129,4.0,7.0,-999,-99.99,,,-99.99,,2013-11-14 08:20:00,
2013-11-14 01:22:00,65.0,-99.9,-100.00,NE,37,10.0,11.0,-999,-99.99,,,-99.99,,2013-11-14 08:22:00,
2013-11-14 02:00:00,64.0,-99.9,-100.00,East,82,6.0,10.0,-999,-99.99,,,-99.99,,2013-11-14 09:00:00,
2013-11-14 02:11:00,63.0,-99.9,-100.00,SE,129,4.0,7.0,-999,-99.99,,,-99.99,,2013-11-14 09:11:00,
2013-11-14 02:43:00,64.0,-99.9,-100.00,ENE,77,5.0,10.0,-999,-99.99,,,-99.99,,2013-11-14 09:43:00,
2013-11-14 02:53:00,64.0,-99.9,-100.00,East,82,6.0,10.0,-999,-99.99,,,-99.99,,2013-11-14 09:53:00,
2013-11-14 03:43:00,65.0,-99.9,-100.00,SSE,149,8.0,13.0,-999,-99.99,,,-99.99,,2013-11-14 10:43:00,
2013-11-14 03:50:00,62.0,-99.9,-100.00,NE,49,8.0,8.0,-999,-99.99,,,-99.99,,2013-11-14 10:50:00,
2013-11-14 03:52:00,65.0,-99.9,-100.00,South,185,4.0,7.0,-999,-99.99,,,-99.99,,2013-11-14 10:52:00,
2013-11-14 04:02:00,65.0,-99.9,-100.00,South,185,4.0,7.0,-999,-99.99,,,-99.99,,2013-11-14 11:02:00,
2013-11-14 04:42:00,62.0,-99.9,-100.00,NE,49,8.0,8.0,-999,-99.99,,,-99.99,,2013-11-14 11:42:00,
2013-11-14 04:50:00,62.0,-99.9,-100.00,ENE,72,6.0,7.0,-999,-99.99,,,-99.99,,2013-11-14 11:50:00,
2013-11-14 05:30:00,64.0,-99.9,-100.00,ESE,103,6.0,11.0,-999,-99.99,,,-99.99,,2013-11-14 12:30:00,
2013-11-14 05:42:00,62.0,-99.9,-100.00,ENE,72,6.0,7.0,-999,-99.99,,,-99.99,,2013-11-14 12:42:00,
2013-11-14 06:11:00,62.0,-99.9,-100.00,NE,45,5.0,8.0,-999,-99.99,,,-99.99,,2013-11-14 13:11:00,
2013-11-14 06:20:00,65.0,-99.9,-100.00,East,81,8.0,10.0,-999,-99.99,,,-99.99,,2013-11-14 13:20:00,
2013-11-14 06:22:00,64.0,-99.9,-100.00,ESE,103,6.0,11.0,-999,-99.99,,,-99.99,,2013-11-14 13:22:00,
2013-11-14 07:11:00,65.0,-99.9,-100.00,East,81,8.0,10.0,-999,-99.99,,,-99.99,,2013-11-14 14:11:00,
2013-11-14 08:22:00,61.0,-99.9,-100.00,ENE,72,4.0,14.0,-999,-99.99,,,-99.99,,2013-11-14 15:22:00,
2013-11-14 08:33:00,61.0,-99.9,-100.00,ENE,72,4.0,14.0,-999,-99.99,,,-99.99,,2013-11-14 15:33:00,
2013-11-14 09:50:00,75.0,-99.9,-100.00,ESE,103,8.0,14.0,-999,-99.99,,,-99.99,,2013-11-14 16:50:00,
2013-11-14 10:40:00,76.0,-99.9,-100.00,East,99,8.0,13.0,-999,-99.99,,,-99.99,,2013-11-14 17:40:00,
2013-11-14 10:42:00,75.0,-99.9,-100.00,ESE,103,8.0,14.0,-999,-99.99,,,-99.99,,2013-11-14 17:42:00,
2013-11-14 11:12:00,76.0,-99.9,-100.00,East,90,7.0,11.0,-999,-99.99,,,-99.99,,2013-11-14 18:12:00,
2013-11-14 11:22:00,76.0,-99.9,-100.00,East,99,8.0,13.0,-999,-99.99,,,-99.99,,2013-11-14 18:22:00,
2013-11-14 11:33:00,76.0,-99.9,-100.00,East,99,8.0,13.0,-999,-99.99,,,-99.99,,2013-11-14 18:33:00,
2013-11-14 13:22:00,80.0,-99.9,-100.00,NE,49,9.0,15.0,-999,-99.99,,,-99.99,,2013-11-14 20:22:00,
2013-11-14 13:42:00,80.0,-99.9,-100.00,East,87,4.0,9.0,-999,-99.99,,,-99.99,,2013-11-14 20:42:00,
2013-11-14 13:52:00,81.0,-99.9,-100.00,East,96,9.0,10.0,-999,-99.99,,,-99.99,,2013-11-14 20:52:00,
2013-11-14 14:11:00,82.0,-99.9,-100.00,ENE,73,10.0,11.0,-999,-99.99,,,-99.99,,2013-11-14 21:11:00,
2013-11-14 14:22:00,82.0,-99.9,-100.00,SSE,167,4.0,10.0,-999,-99.99,,,-99.99,,2013-11-14 21:22:00,
2013-11-14 14:33:00,82.0,-99.9,-100.00,SSE,167,4.0,10.0,-999,-99.99,,,-99.99,,2013-11-14 21:33:00,
2013-11-14 14:43:00,82.0,-99.9,-100.00,SSE,167,4.0,10.0,-999,-99.99,,,-99.99,,2013-11-14 21:43:00,
2013-11-14 14:54:00,82.0,-99.9,-100.00,NE,34,7.0,11.0,-999,-99.99,,,-99.99,,2013-11-14 21:54:00,
2013-11-14 15:13:00,82.0,-99.9,-100.00,ESE,110,8.0,8.0,-999,-99.99,,,-99.99,,2013-11-14 22:13:00,
2013-11-14 15:53:00,82.0,-99.9,-100.00,South,173,0.0,12.0,-999,-99.99,,,-99.99,,2013-11-14 22:53:00,
2013-11-14 16:02:00,82.0,-99.9,-100.00,South,173,0.0,12.0,-999,-99.99,,,-99.99,,2013-11-14 23:02:00,
2013-11-14 16:43:00,82.0,-99.9,-100.00,South,186,8.0,8.0,-999,-99.99,,,-99.99,,2013-11-14 23:43:00,
2013-11-14 16:52:00,82.0,-99.9,-100.00,North,8,2.0,3.0,-999,-99.99,,,-99.99,,2013-11-14 23:52:00,
2013-11-14 17:02:00,82.0,-99.9,-100.00,North,8,2.0,3.0,-999,-99.99,,,-99.99,,2013-11-15 00:02:00,
2013-11-14 18:12:00,82.0,-99.9,-100.00,NNW,342,2.0,5.0,-999,-99.99,,,-99.99,,2013-11-15 01:12:00,
2013-11-14 18:22:00,80.0,-99.9,-100.00,North,355,2.0,2.0,-999,-99.99,,,-99.99,,2013-11-15 01:22:00,
2013-11-14 18:42:00,79.0,-99.9,-100.00,SSW,202,8.0,8.0,-999,-99.99,,,-99.99,,2013-11-15 01:42:00,
2013-11-14 18:50:00,75.0,-99.9,-100.00,SW,218,1.0,4.0,-999,-99.99,,,-99.99,,2013-11-15 01:50:00,
2013-11-14 18:52:00,79.0,-99.9,-100.00,SSW,202,8.0,8.0,-999,-99.99,,,-99.99,,2013-11-15 01:52:00,
2013-11-14 19:12:00,78.0,-99.9,-100.00,South,189,1.0,3.0,-999,-99.99,,,-99.99,,2013-11-15 02:12:00,
2013-11-14 19:42:00,75.0,-99.9,-100.00,SW,218,1.0,4.0,-999,-99.99,,,-99.99,,2013-11-15 02:42:00,
2013-11-14 20:20:00,69.0,-99.9,-100.00,NNE,16,7.0,7.0,-999,-99.99,,,-99.99,,2013-11-15 03:20:00,
2013-11-14 20:50:00,68.0,-99.9,-100.00,South,190,10.0,12.0,-999,-99.99,,,-99.99,,2013-11-15 03:50:00,
2013-11-14 20:54:00,70.0,-99.9,-100.00,North,10,3.0,6.0,-999,-99.99,,,-99.99,,2013-11-15 03:54:00,
2013-11-14 21:14:00,69.0,-99.9,-100.00,NNE,16,7.0,7.0,-999,-99.99,,,-99.99,,2013-11-15 04:14:00,
2013-11-14 21:43:00,68.0,-99.9,-100.00,South,190,10.0,12.0,-999,-99.99,,,-99.99,,2013-11-15 04:43:00,
2013-11-14 22:23:00,69.0,-99.9,-100.00,NNE,25,4.0,5.0,-999,-99.99,,,-99.99,,2013-11-15 05:23:00,
2013-11-14 22:44:00,68.0,-99.9,-100.00,South,184,7.0,10.0,-999,-99.99,,,-99.99,,2013-11-15 05:44:00,
2013-11-14 22:53:00,68.0,-99.9,-100.00,South,184,7.0,10.0,-999,-99.99,,,-99.99,,2013-11-15 05:53:00,
2013-11-14 23:00:00,67.0,-99.9,-100.00,SSE,166,11.0,13.0,-999,-99.99,,,-99.99,,2013-11-15 06:00:00,
2013-11-14 23:12:00,68.0,-99.9,-100.00,North,2,6.0,14.0,-999,-99.99,,,-99.99,,2013-11-15 06:12:00,
2013-11-14 23:23:00,66.0,-99.9,-100.00,South,179,11.0,11.0,-999,-99.99,,,-99.99,,2013-11-15 06:23:00,
2013-11-14 23:33:00,66.0,-99.9,-100.00,South,179,11.0,11.0,-999,-99.99,,,-99.99,,2013-11-15 06:33:00,
2013-11-14 23:53:00,67.0,-99.9,-100.00,SSE,166,11.0,13.0,-999,-99.99,,,-99.99,,2013-11-15 06:53:00,